Flag for Russia Weather for the Past 2 Weeks in Petropavlovsk-Kamchatsky, Russia

Now
45 °F

Scattered clouds.


Feels Like: 38 °F
Forecast: 34 / 47 °F
Wind: 15 mph from Southwest

Location: Petropavlovsk-Kamchatskij

Current Time: May 1, 2016 at 6:39:33 PM

Latest Report: May 1, 2016 at 6:00 PM


Visibility: N/A

Pressure: 29.45 "Hg

Humidity: 46%

Dew Point: 25 °F

Location of Petropavlovsk-KamchatskyLocation

Historic Weather in Petropavlovsk-Kamchatsky — Graph

°F

Petropavlovsk-Kamchatsky Temperature Yesterday

Maximum temperature yesterday: 43 °F (at 11:00 AM)
Minimum temperature yesterday: 30 °F (at 1:00 AM)
Average temperature yesterday: 37 °F

High & Low Weather Summary for the Past Weeks

 TemperatureHumidityPressure
High48 °F (Apr 23, 2:00 PM)93% (Apr 19, 9:00 PM)30.09 "Hg (Apr 19, 9:00 PM)
Low23 °F (Apr 21, 3:00 AM)26% (Apr 21, 6:00 PM)29.00 "Hg (Apr 17, 2:00 AM)
Average37 °F58%29.69 "Hg
* Reported Apr 16 5:30 PM — May 1 5:00 PM, Petropavlovsk-Kamchatsky, Weather by CustomWeather, © 2016

Note: Actual official high and low records may vary slightly from our data, if they occured in-between our weather recording intervals... More about our weather records

Advertising

Petropavlovsk-Kamchatsky Weather History for the Previous 24 Hours

Scroll right to see more
 ConditionsComfort  
Time TempWeatherWind HumidityBarometerVisibility
5:00 PM
Sun, May 1
45 °FScattered clouds.17 mph46%29.45 "HgN/A
4:30 PM43 °FPartly sunny.17 mph49%29.45 "HgN/A
4:00 PM45 °FPartly sunny.15 mph49%29.45 "HgN/A
3:30 PM45 °FPartly sunny.22 mph46%29.42 "HgN/A
3:00 PM45 °FSprinkles. Partly sunny.15 mph46%29.42 "HgN/A
2:30 PM45 °FPartly sunny.10 mph42%29.45 "HgN/A
2:00 PM45 °FScattered clouds.20 mph46%29.45 "HgN/A
1:30 PM45 °FScattered clouds.13 mph42%29.42 "HgN/A
1:00 PM45 °FScattered clouds.13 mph46%29.45 "HgN/A
12:30 PM45 °FScattered clouds.10 mph39%29.45 "HgN/A
12:00 PM45 °FScattered clouds.10 mph39%29.45 "HgN/A
11:30 AM45 °FScattered clouds.8 mph42%29.45 "HgN/A
11:00 AM43 °FScattered clouds.15 mph49%29.45 "HgN/A
10:30 AM43 °FScattered clouds.6 mph49%29.45 "HgN/A
10:00 AM43 °FScattered clouds.22 mph42%29.45 "HgN/A
9:30 AM41 °FScattered clouds.13 mph49%29.47 "HgN/A
9:00 AM43 °FScattered clouds.8 mph49%29.47 "HgN/A
8:30 AM41 °FScattered clouds.10 mph49%29.47 "HgN/A
8:00 AM39 °FScattered clouds.15 mph52%29.47 "HgN/A
7:30 AM41 °FScattered clouds.15 mph49%29.47 "HgN/A
7:00 AM39 °FScattered clouds.20 mph52%29.45 "HgN/A
6:00 AM39 °FScattered clouds.17 mph48%29.45 "HgN/A
5:00 AM39 °FPassing clouds.24 mph45%29.47 "HgN/A
4:00 AM37 °FPassing clouds.22 mph52%29.50 "HgN/A
3:00 AM39 °FPassing clouds.29 mph42%29.50 "HgN/A
2:00 AM39 °FPassing clouds.26 mph45%29.53 "HgN/A
1:00 AM41 °FPassing clouds.20 mph39%29.53 "HgN/A
12:00 AM39 °FPassing clouds.13 mph45%29.56 "HgN/A
11:00 PM
Sat, Apr 30
39 °FPassing clouds.10 mph48%29.59 "HgN/A
10:00 PM39 °FPassing clouds.8 mph48%29.65 "HgN/A
9:00 PM37 °FPassing clouds.20 mph52%29.68 "HgN/A
8:00 PM39 °FPassing clouds.15 mph48%29.71 "HgN/A
7:30 PM41 °FPassing clouds.8 mph45%29.71 "HgN/A
7:00 PM41 °FPassing clouds.8 mph49%29.71 "HgN/A
6:30 PM41 °FScattered clouds.13 mph45%29.71 "HgN/A
6:00 PM41 °FScattered clouds.15 mph45%29.74 "HgN/A
Weather by CustomWeather, © 2016

See weather overviewHow to use our weather pages